Radiation Dose at Monitoring Post of Fukushima Daini Nuclear Power Station
Date,Time,MP-1(microSv/h),MP-2(microSv/h),MP-3(microSv/h),MP-4(microSv/h),MP-5(microSv/h),MP-6(microSv/h),MP-7(microSv/h),Wind Direction,Wind Velocity(m/s),Rain
2021/05/22,00:00,0.170,0.158,0.241,0.233,0.239,0.138,0.091,north-northwest,4.7,Yes
2021/05/22,00:10,0.170,0.158,0.239,0.233,0.239,0.138,0.092,north,4.4,Yes
2021/05/22,00:20,0.168,0.157,0.241,0.231,0.238,0.136,0.090,north,3.3,No
2021/05/22,00:30,0.168,0.156,0.238,0.232,0.237,0.134,0.090,northeast,4.5,Yes
2021/05/22,00:40,0.166,0.156,0.239,0.230,0.235,0.134,0.087,north-northwest,1.8,Yes
2021/05/22,00:50,0.167,0.154,0.236,0.230,0.235,0.133,0.087,north-northeast,2.4,No
2021/05/22,01:00,0.164,0.153,0.236,0.228,0.233,0.132,0.086,north,0.9,No
2021/05/22,01:10,0.165,0.152,0.234,0.228,0.233,0.130,0.084,north,2.4,No
2021/05/22,01:20,0.163,0.151,0.235,0.226,0.231,0.130,0.084,north-northwest,1.9,No
2021/05/22,01:30,0.164,0.150,0.231,0.225,0.232,0.128,0.081,north-northeast,2.0,No
2021/05/22,01:40,0.161,0.149,0.233,0.224,0.230,0.128,0.081,north-northwest,2.4,No
2021/05/22,01:50,0.162,0.149,0.233,0.225,0.230,0.126,0.081,northwest,2.2,No
2021/05/22,02:00,0.160,0.147,0.231,0.224,0.228,0.127,0.080,north,1.8,No
2021/05/22,02:10,0.162,0.147,0.231,0.224,0.231,0.126,0.080,north,1.5,Yes
2021/05/22,02:20,0.161,0.148,0.231,0.223,0.228,0.127,0.080,north,3.3,Yes
2021/05/22,02:30,0.164,0.150,0.233,0.228,0.231,0.127,0.081,north-northwest,2.7,Yes
2021/05/22,02:40,0.163,0.150,0.233,0.227,0.230,0.129,0.082,north,4.2,Yes
2021/05/22,02:50,0.164,0.151,0.234,0.228,0.233,0.130,0.083,north-northwest,2.5,Yes
2021/05/22,03:00,0.164,0.151,0.233,0.227,0.231,0.129,0.083,northwest,2.9,No
2021/05/22,03:10,0.165,0.151,0.235,0.227,0.233,0.129,0.082,north-northwest,2.4,Yes
2021/05/22,03:20,0.164,0.151,0.234,0.227,0.234,0.132,0.083,north-northwest,4.3,Yes
2021/05/22,03:30,0.165,0.151,0.234,0.229,0.235,0.132,0.084,north-northwest,4.4,Yes
2021/05/22,03:40,0.164,0.152,0.234,0.229,0.234,0.131,0.083,north-northwest,4.7,No
2021/05/22,03:50,0.165,0.151,0.234,0.228,0.235,0.131,0.084,north,4.1,No
2021/05/22,04:00,0.164,0.151,0.234,0.227,0.232,0.131,0.083,north,3.6,No
2021/05/22,04:10,0.163,0.149,0.232,0.225,0.234,0.130,0.082,north,3.7,Yes
2021/05/22,04:20,0.163,0.150,0.233,0.226,0.231,0.130,0.083,north,3.6,Yes
2021/05/22,04:30,0.163,0.149,0.232,0.226,0.234,0.131,0.085,north,4.2,Yes
2021/05/22,04:40,0.163,0.149,0.233,0.227,0.231,0.132,0.086,north,5.7,Yes
2021/05/22,04:50,0.163,0.150,0.233,0.226,0.234,0.132,0.086,north,5.1,Yes
2021/05/22,05:00,0.164,0.150,0.235,0.228,0.232,0.132,0.086,north,4.6,No
2021/05/22,05:10,0.164,0.152,0.234,0.227,0.235,0.131,0.085,north,3.9,Yes
2021/05/22,05:20,0.165,0.152,0.235,0.230,0.232,0.132,0.086,north-northwest,3.4,Yes
2021/05/22,05:30,0.165,0.153,0.237,0.230,0.235,0.134,0.089,north,3.7,Yes
2021/05/22,05:40,0.165,0.154,0.237,0.231,0.235,0.136,0.089,north-northwest,3.7,Yes
2021/05/22,05:50,0.167,0.154,0.238,0.230,0.237,0.134,0.089,north-northwest,4.9,Yes
2021/05/22,06:00,0.166,0.155,0.237,0.231,0.235,0.135,0.087,north-northwest,4.5,Yes
2021/05/22,06:10,0.165,0.154,0.237,0.230,0.237,0.134,0.089,north-northwest,4.1,Yes
2021/05/22,06:20,0.165,0.153,0.237,0.229,0.234,0.133,0.087,northwest,2.7,No
2021/05/22,06:30,0.165,0.152,0.236,0.228,0.234,0.132,0.086,north-northeast,2.6,Yes
2021/05/22,06:40,0.163,0.152,0.235,0.228,0.233,0.130,0.085,north-northwest,2.9,Yes
2021/05/22,06:50,0.163,0.151,0.235,0.227,0.233,0.130,0.085,north-northeast,3.7,Yes
2021/05/22,07:00,0.163,0.151,0.234,0.227,0.231,0.131,0.084,northeast,4.3,No
2021/05/22,07:10,0.163,0.150,0.233,0.226,0.233,0.130,0.084,north,3.9,Yes
2021/05/22,07:20,0.165,0.152,0.236,0.227,0.232,0.131,0.086,north,3.9,Yes
2021/05/22,07:30,0.164,0.153,0.234,0.229,0.233,0.130,0.086,north-northeast,4.5,Yes
2021/05/22,07:40,0.165,0.151,0.236,0.227,0.231,0.130,0.085,north-northeast,3.4,No
2021/05/22,07:50,0.163,0.151,0.233,0.227,0.232,0.129,0.085,north,2.8,No
2021/05/22,08:00,0.164,0.150,0.233,0.225,0.230,0.129,0.084,northeast,1.7,No
2021/05/22,08:10,0.162,0.150,0.232,0.226,0.230,0.128,0.083,north,4.1,No
2021/05/22,08:20,0.162,0.149,0.233,0.224,0.230,0.128,0.082,north,5.1,No
2021/05/22,08:30,0.162,0.149,0.234,0.226,0.230,0.128,0.082,north-northwest,3.1,No
2021/05/22,08:40,0.162,0.149,0.232,0.225,0.230,0.128,0.081,north,3.8,No
2021/05/22,08:50,0.162,0.149,0.232,0.226,0.230,0.127,0.082,north-northwest,2.9,No
2021/05/22,09:00,0.161,0.148,0.232,0.224,0.229,0.127,0.080,north,2.3,No
2021/05/22,09:10,0.161,0.148,0.232,0.225,0.230,0.126,0.080,north,2.0,No
2021/05/22,09:20,0.161,0.147,0.230,0.223,0.228,0.126,0.081,north-northwest,1.8,No
2021/05/22,09:30,0.161,0.146,0.232,0.224,0.229,0.126,0.080,north-northwest,3.0,No
2021/05/22,09:40,0.161,0.146,0.229,0.224,0.226,0.126,0.080,north,3.3,No
2021/05/22,09:50,0.160,0.146,0.230,0.225,0.228,0.125,0.080,north-northeast,3.0,No
2021/05/22,10:00,0.160,0.147,0.230,0.223,0.226,0.125,0.079,northeast,2.2,No
2021/05/22,10:10,0.160,0.146,0.231,0.223,0.229,0.124,0.079,north,1.8,No
2021/05/22,10:20,0.161,0.145,0.229,0.222,0.227,0.124,0.079,northeast,2.0,No
2021/05/22,10:30,0.161,0.146,0.231,0.223,0.228,0.125,0.080,northeast,0.9,No
2021/05/22,10:40,0.161,0.147,0.229,0.221,0.227,0.125,0.079,northeast,1.4,No
2021/05/22,10:50,0.161,0.146,0.231,0.224,0.228,0.125,0.078,northeast,1.1,No
2021/05/22,11:00,0.161,0.147,0.231,0.222,0.228,0.125,0.079,east,0.9,No
2021/05/22,11:10,0.161,0.146,0.232,0.225,0.228,0.126,0.080,east,1.2,Yes
2021/05/22,11:20,0.162,0.149,0.231,0.224,0.230,0.128,0.082,east-northeast,0.9,Yes
2021/05/22,11:30,0.164,0.150,0.235,0.226,0.230,0.128,0.083,-,CALM,Yes
2021/05/22,11:40,0.165,0.153,0.235,0.227,0.233,0.131,0.083,northeast,1.4,Yes
2021/05/22,11:50,0.165,0.153,0.236,0.231,0.233,0.131,0.085,east-northeast,1.6,Yes
2021/05/22,12:00,0.166,0.153,0.237,0.227,0.234,0.132,0.085,east-northeast,1.5,No
2021/05/22,12:10,0.166,0.152,0.235,0.229,0.231,0.131,0.084,northeast,0.9,No
2021/05/22,12:20,0.164,0.151,0.235,0.227,0.233,0.130,0.084,east-northeast,2.0,No
2021/05/22,12:30,0.163,0.152,0.234,0.228,0.230,0.130,0.082,east-northeast,2.7,Yes
2021/05/22,12:40,0.165,0.149,0.235,0.225,0.232,0.128,0.082,northeast,1.5,No
2021/05/22,12:50,0.163,0.150,0.233,0.227,0.229,0.128,0.081,east-northeast,1.5,No
2021/05/22,13:00,0.163,0.148,0.234,0.226,0.231,0.127,0.082,northeast,1.5,No
2021/05/22,13:10,0.162,0.150,0.231,0.225,0.230,0.127,0.080,north-northeast,1.8,No
2021/05/22,13:20,0.163,0.149,0.233,0.224,0.230,0.127,0.081,northeast,2.0,No
2021/05/22,13:30,0.162,0.148,0.233,0.226,0.230,0.128,0.081,northeast,2.9,No
2021/05/22,13:40,0.162,0.148,0.233,0.224,0.229,0.126,0.081,northeast,2.5,Yes
2021/05/22,13:50,0.162,0.149,0.231,0.226,0.230,0.127,0.081,north-northeast,3.0,No
2021/05/22,14:00,0.162,0.148,0.233,0.225,0.230,0.127,0.081,north-northwest,2.6,No
2021/05/22,14:10,0.162,0.148,0.233,0.225,0.229,0.127,0.081,north,3.1,No
2021/05/22,14:20,0.162,0.149,0.233,0.225,0.231,0.128,0.081,north-northwest,2.8,No
2021/05/22,14:30,0.162,0.148,0.233,0.226,0.229,0.128,0.082,north,2.7,No
2021/05/22,14:40,0.162,0.149,0.232,0.227,0.230,0.128,0.081,north-northeast,2.5,No
2021/05/22,14:50,0.162,0.148,0.233,0.225,0.230,0.127,0.080,east-northeast,1.2,No
2021/05/22,15:00,0.163,0.148,0.230,0.224,0.229,0.127,0.080,northeast,0.6,No
2021/05/22,15:10,0.161,0.148,0.232,0.223,0.229,0.127,0.080,north-northeast,1.8,No
2021/05/22,15:20,0.161,0.148,0.231,0.225,0.227,0.127,0.079,north-northeast,1.7,No
2021/05/22,15:30,0.162,0.147,0.231,0.224,0.229,0.127,0.081,north-northeast,1.9,No
2021/05/22,15:40,0.161,0.148,0.232,0.226,0.227,0.126,0.080,north-northeast,1.5,No
2021/05/22,15:50,0.162,0.148,0.232,0.226,0.230,0.127,0.080,north-northeast,1.5,No
2021/05/22,16:00,0.162,0.149,0.234,0.226,0.229,0.127,0.080,north-northeast,0.9,No
2021/05/22,16:10,0.163,0.149,0.232,0.226,0.230,0.127,0.080,northeast,0.6,No
2021/05/22,16:20,0.162,0.148,0.233,0.226,0.230,0.128,0.079,north-northeast,1.1,No
2021/05/22,16:30,0.162,0.148,0.232,0.224,0.231,0.127,0.080,-,CALM,No
2021/05/22,16:40,0.163,0.148,0.234,0.226,0.228,0.127,0.081,-,CALM,No
2021/05/22,16:50,0.162,0.148,0.232,0.224,0.230,0.127,0.080,east-southeast,1.0,No
2021/05/22,17:00,0.162,0.149,0.234,0.226,0.228,0.129,0.081,east-southeast,1.1,Yes
2021/05/22,17:10,0.164,0.151,0.233,0.226,0.232,0.129,0.083,-,CALM,Yes
2021/05/22,17:20,0.166,0.153,0.237,0.230,0.232,0.131,0.085,-,CALM,Yes
2021/05/22,17:30,0.169,0.154,0.237,0.230,0.235,0.131,0.085,-,CALM,Yes
2021/05/22,17:40,0.167,0.155,0.238,0.230,0.233,0.132,0.085,-,CALM,Yes
2021/05/22,17:50,0.168,0.155,0.238,0.229,0.236,0.132,0.086,southeast,0.7,Yes
2021/05/22,18:00,0.168,0.154,0.238,0.231,0.234,0.134,0.087,east-southeast,1.8,Yes
2021/05/22,18:10,0.169,0.155,0.239,0.231,0.236,0.134,0.087,east,2.4,Yes
2021/05/22,18:20,0.169,0.157,0.240,0.232,0.236,0.135,0.088,east,2.5,Yes
2021/05/22,18:30,0.171,0.158,0.241,0.234,0.238,0.136,0.089,east,1.6,Yes
2021/05/22,18:40,0.171,0.158,0.241,0.233,0.236,0.136,0.089,east-northeast,1.6,Yes
2021/05/22,18:50,0.172,0.160,0.243,0.234,0.236,0.136,0.090,east-northeast,1.1,Yes
2021/05/22,19:00,0.171,0.160,0.244,0.234,0.241,0.138,0.091,east-northeast,0.7,Yes
2021/05/22,19:10,0.172,0.160,0.244,0.236,0.240,0.140,0.092,northeast,0.8,Yes
2021/05/22,19:20,0.173,0.160,0.246,0.236,0.243,0.140,0.092,-,CALM,Yes
2021/05/22,19:30,0.173,0.161,0.245,0.236,0.242,0.141,0.093,-,CALM,Yes
2021/05/22,19:40,0.175,0.164,0.247,0.237,0.243,0.141,0.095,north-northeast,0.6,Yes
2021/05/22,19:50,0.175,0.163,0.246,0.237,0.241,0.142,0.096,-,CALM,Yes
2021/05/22,20:00,0.177,0.163,0.246,0.238,0.243,0.142,0.097,northeast,0.9,Yes
2021/05/22,20:10,0.175,0.163,0.246,0.235,0.243,0.142,0.096,north-northeast,0.9,Yes
2021/05/22,20:20,0.174,0.162,0.244,0.236,0.243,0.142,0.096,north-northwest,1.2,Yes
2021/05/22,20:30,0.173,0.162,0.245,0.235,0.240,0.140,0.096,north-northeast,2.6,Yes
2021/05/22,20:40,0.173,0.161,0.243,0.235,0.241,0.139,0.094,north-northeast,1.7,Yes
2021/05/22,20:50,0.172,0.160,0.241,0.233,0.238,0.137,0.095,north,2.3,Yes
2021/05/22,21:00,0.170,0.159,0.240,0.233,0.238,0.137,0.093,north,2.9,Yes
2021/05/22,21:10,0.169,0.158,0.240,0.232,0.240,0.137,0.093,-,CALM,Yes
2021/05/22,21:20,0.168,0.159,0.240,0.231,0.238,0.137,0.092,north-northwest,0.7,Yes
2021/05/22,21:30,0.168,0.157,0.239,0.232,0.238,0.136,0.091,north-northwest,2.1,Yes
2021/05/22,21:40,0.168,0.156,0.240,0.232,0.236,0.136,0.091,north-northwest,3.0,Yes
2021/05/22,21:50,0.169,0.157,0.240,0.233,0.240,0.138,0.091,-,CALM,Yes
2021/05/22,22:00,0.168,0.158,0.241,0.232,0.237,0.138,0.091,-,CALM,Yes
2021/05/22,22:10,0.170,0.157,0.241,0.234,0.240,0.137,0.091,north,3.1,Yes
2021/05/22,22:20,0.170,0.158,0.240,0.234,0.239,0.138,0.092,north-northwest,2.5,Yes
2021/05/22,22:30,0.169,0.158,0.242,0.234,0.240,0.137,0.091,north-northwest,2.3,Yes
2021/05/22,22:40,0.170,0.157,0.240,0.234,0.239,0.136,0.091,north,2.9,Yes
2021/05/22,22:50,0.168,0.158,0.240,0.232,0.239,0.136,0.091,north,1.6,No
2021/05/22,23:00,0.168,0.155,0.239,0.233,0.237,0.135,0.089,north,1.2,No
2021/05/22,23:10,0.165,0.154,0.238,0.231,0.237,0.133,0.088,north,0.6,No
2021/05/22,23:20,0.166,0.153,0.237,0.229,0.234,0.132,0.087,northwest,0.8,No
2021/05/22,23:30,0.164,0.151,0.234,0.227,0.232,0.131,0.084,north-northeast,1.4,No
2021/05/22,23:40,0.163,0.152,0.235,0.226,0.232,0.129,0.084,north-northeast,0.6,No
2021/05/22,23:50,0.163,0.149,0.232,0.225,0.230,0.128,0.084,northeast,0.7,No
